Weather History for KPVU - January, 2013

Change the Weather History Date:

Monday, January 7, 2013

  Actual Average Record
Temperature  
Mean Temperature 8 °F -  
Max Temperature 17 °F 34 °F 55 °F (2006)
Min Temperature 0 °F 21 °F 0 °F (2013)
Degree Days  
Heating Degree Days 56    
Moisture  
Dew Point 5 °F    
Average Humidity 88    
Maximum Humidity 100    
Minimum Humidity 72    
Precipitation  
Precipitation 0.00 in - - ()
Sea Level Pressure  
Sea Level Pressure 30.17 in    
Wind  
Wind Speed 1 mph (SE)    
Max Wind Speed 5 mph    
Max Gust Speed -    
Visibility 3 miles    
Events Snow    
Averages and records for this station are not official NWS values.
T = Trace of Precipitation, MM = Missing Value Source: NWS Daily Summary

Daily Weather History Graph

Daily Weather History Graph

Search for Another Location

Airport or City:

Trip Planner

Search our weather history database for the weather conditions in past years. The results will help you decide how hot, cold, wet, or windy it might be!

Date:

Astronomy

Jan. 07, 2013 Rise Set
Actual Time 7:49 AM MST 5:17 PM MST
Civil Twilight 7:19 AM MST 5:47 PM MST
Nautical Twilight 6:45 AM MST 6:21 PM MST
Astronomical Twilight 6:12 AM MST 6:54 PM MST
Moon 3:17 AM MST (1/7) 1:31 PM MST (1/7)
Length of Visible Light 10h 28m
Length of Day
9h 28m
Waning Crescent, 22% of the Moon is Illuminated
Jan 7
Waning Crescent
Jan 11
New
Jan 18
First Quarter
Jan 26
Full
Feb 3
Last Quarter

Hourly Weather History & Observations

Time (MST) Temp. Windchill Dew Point Humidity Pressure Visibility Wind Dir Wind Speed Gust Speed Precip Events Conditions
12:15 AM 1.4 °F - -2.2 °F 85% 30.14 in 2.5 mi Calm Calm - N/A   Clear
12:35 AM 5.0 °F -4.1 °F 5.0 °F 100% 30.14 in 2.0 mi South 4.6 mph - N/A   Clear
12:55 AM 5.0 °F -2.1 °F 1.4 °F 85% 30.14 in 2.0 mi SSW 3.5 mph - N/A   Clear
1:15 AM 3.2 °F - -0.4 °F 85% 30.15 in 2.5 mi Calm Calm - N/A   Clear
1:35 AM 3.2 °F - 1.4 °F 92% 30.14 in 1.8 mi Calm Calm - N/A   Clear
1:55 AM 3.2 °F -6.2 °F 1.4 °F 92% 30.14 in 2.0 mi South 4.6 mph - N/A   Clear
2:15 AM -0.4 °F - -4.0 °F 85% 30.15 in 2.0 mi Calm Calm - N/A   Clear
2:35 AM 1.4 °F - 1.4 °F 100% 30.15 in 2.5 mi Calm Calm - N/A   Clear
2:55 AM 1.4 °F - -0.4 °F 92% 30.15 in 1.8 mi Calm Calm - N/A   Clear
3:15 AM 1.4 °F - -0.4 °F 92% 30.14 in 2.0 mi Calm Calm - N/A   Clear
3:35 AM 1.4 °F - -0.4 °F 92% 30.14 in 2.0 mi Calm Calm - N/A   Clear
3:55 AM 1.4 °F -8.3 °F 1.4 °F 100% 30.14 in 2.0 mi NW 4.6 mph - N/A   Clear
4:15 AM 1.4 °F - -5.8 °F 72% 30.15 in 2.5 mi Calm Calm - N/A   Clear
4:55 AM 1.4 °F - -0.4 °F 92% 30.14 in 2.0 mi Calm Calm - N/A   Clear
5:35 AM -0.4 °F - -0.4 °F 100% 30.13 in 3.0 mi Calm Calm - N/A   Clear
5:55 AM -0.4 °F -8.3 °F -7.6 °F 72% 30.12 in 3.0 mi SE 3.5 mph - N/A   Clear
6:15 AM -0.4 °F -8.3 °F -0.4 °F 100% 30.13 in 3.0 mi NE 3.5 mph - N/A   Partly Cloudy
6:35 AM -0.4 °F - -2.2 °F 92% 30.13 in 3.0 mi Calm Calm - N/A   Partly Cloudy
6:55 AM 1.4 °F - -2.2 °F 85% 30.16 in 3.0 mi Calm Calm - N/A   Clear
7:47 AM 1.4 °F - -2.2 °F 85% 30.18 in 2.0 mi Calm Calm - N/A   Overcast
8:55 AM -0.4 °F - -2.2 °F 92% 30.21 in 2.0 mi Calm Calm - N/A Snow Light Snow
9:55 AM 3.2 °F - 1.4 °F 92% 30.24 in 2.0 mi Calm Calm - N/A Snow Light Snow
10:50 AM 8.6 °F - 8.6 °F 100% 30.25 in 2.0 mi Calm Calm - N/A   Clear
12:50 PM 10.4 °F - 8.6 °F 92% 30.20 in 2.0 mi Calm Calm - N/A   Scattered Clouds
1:50 PM 12.2 °F - 8.6 °F 85% 30.20 in 2.0 mi Calm Calm - N/A   Scattered Clouds
3:50 PM 14.0 °F - 10.4 °F 86% 30.19 in 3.0 mi Calm Calm - N/A   Haze
4:50 PM 15.8 °F - 10.4 °F 79% 30.20 in 3.0 mi Calm Calm - N/A   Haze
5:50 PM 15.8 °F - 10.4 °F 79% 30.20 in 3.0 mi Calm Calm - N/A   Haze
6:50 PM 14.0 °F - 10.4 °F 86% 30.20 in 4.0 mi Calm Calm - N/A   Haze
7:50 PM 15.8 °F - 12.2 °F 86% 30.20 in 3.0 mi Calm Calm - N/A   Haze
8:50 PM 15.8 °F - 14.0 °F 93% 30.18 in 3.0 mi Calm Calm - N/A   Haze
9:15 PM 17.6 °F 12.3 °F 12.2 °F 79% 30.19 in 3.0 mi NNW 3.5 mph - N/A   Overcast
9:35 PM 17.6 °F 10.7 °F 12.2 °F 79% 30.21 in 4.0 mi WNW 4.6 mph - N/A   Overcast
9:55 PM 17.6 °F - 12.2 °F 79% 30.20 in 4.0 mi Calm Calm - N/A   Overcast
10:15 PM 17.6 °F - 12.2 °F 79% 30.21 in 4.0 mi Calm Calm - N/A   Overcast
10:35 PM 17.6 °F - 12.2 °F 79% 30.21 in 4.0 mi Calm Calm - N/A   Overcast
10:55 PM 17.6 °F - 14.0 °F 86% 30.19 in 3.0 mi Calm Calm - N/A   Overcast
11:15 PM 17.6 °F - 14.0 °F 86% 30.19 in 3.0 mi Calm Calm - N/A   Overcast
11:55 PM 17.6 °F 12.3 °F 15.8 °F 93% 30.20 in 3.0 mi East 3.5 mph - N/A   Overcast